^^
Saratoga-Weather Station Historical Data
Daily Summary for November 16, 2020 Units:  English    Metric   Both
Daily Weekly Monthly Yearly Custom
  High: Low: Average:
Temperature: 52.3 °F 49.3 °F 50.5 °F
Dew Point: 48.2 °F 44.8 °F 46.6 °F
Humidity: 92% 81% 87%
Wind Speed: 10.1mph 0mph 3.2mph
Wind Gust: 16mph - -
Wind- - West
Pressure: 30.2 in 29.8 in -
Precipitation: 0.02 in    
Historical Graphs
 
 
Tabular Data for November 16, 2020
Time Temperature Dew Point Pressure Wind Wind Speed Wind Gust Humidity Rainfall Rate (Hourly) solar
00:00 51.4 °F 46.4 °F 29.8 in West 8.1 mph 8 mph 83% 0 in 0 W/m2
00:05 51.4 °F 46.8 °F 29.8 in WNW 10.1 mph 10 mph 84% 0 in 0 W/m2
00:10 51.3 °F 46.2 °F 29.8 in West 4 mph 12 mph 83% 0 in 0 W/m2
00:15 51.3 °F 46.2 °F 29.8 in WNW 4 mph 10 mph 83% 0 in 0 W/m2
00:20 51.3 °F 46.2 °F 29.8 in West 4 mph 13 mph 83% 0 in 0 W/m2
00:25 51.3 °F 46.2 °F 29.8 in NW 4.9 mph 9 mph 83% 0 in 0 W/m2
00:30 51.3 °F 46.2 °F 29.8 in WNW 2.9 mph 15 mph 83% 0 in 0 W/m2
00:35 51.1 °F 46 °F 29.8 in West 4 mph 8 mph 83% 0 in 0 W/m2
00:40 51.1 °F 46 °F 29.8 in NW 6 mph 10 mph 83% 0 in 0 W/m2
00:45 50.9 °F 45.7 °F 29.8 in WNW 2 mph 11 mph 82% 0 in 0 W/m2
00:50 50.9 °F 45.7 °F 29.8 in WNW 8.9 mph 14 mph 82% 0 in 0 W/m2
00:55 50.9 °F 45.7 °F 29.8 in NW 2.9 mph 9 mph 82% 0 in 0 W/m2
01:00 50.7 °F 45.5 °F 29.8 in WNW 2.9 mph 8 mph 82% 0 in 0 W/m2
01:05 50.7 °F 45.5 °F 29.8 in WNW 2.9 mph 8 mph 82% 0 in 0 W/m2
01:10 50.7 °F 45.5 °F 29.8 in WNW 4 mph 10 mph 82% 0 in 0 W/m2
01:15 50.7 °F 45.5 °F 29.8 in West 2 mph 8 mph 82% 0 in 0 W/m2
01:21 50.7 °F 45.5 °F 29.8 in NNW 8.1 mph 13 mph 82% 0 in 0 W/m2
01:26 50.7 °F 45.1 °F 29.8 in North 4 mph 9 mph 81% 0 in 0 W/m2
01:31 50.5 °F 45.3 °F 29.8 in NW 2.9 mph 13 mph 82% 0 in 0 W/m2
01:36 50.5 °F 45.3 °F 29.8 in NW 2.9 mph 10 mph 82% 0 in 0 W/m2
01:41 50.5 °F 45.3 °F 29.8 in North 2.9 mph 13 mph 82% 0 in 0 W/m2
01:46 50.5 °F 45.3 °F 29.8 in WNW 8.1 mph 8 mph 82% 0 in 0 W/m2
01:51 50.5 °F 45 °F 29.8 in West 2.9 mph 9 mph 81% 0 in 0 W/m2
01:56 50.5 °F 45 °F 29.8 in NW 4 mph 6 mph 81% 0 in 0 W/m2
02:01 50.4 °F 44.8 °F 29.8 in NNW 2.9 mph 7 mph 81% 0 in 0 W/m2
02:06 50.4 °F 44.8 °F 29.8 in NNW 6 mph 10 mph 81% 0 in 0 W/m2
02:11 50.4 °F 44.8 °F 29.8 in West 4 mph 4 mph 81% 0 in 0 W/m2
02:16 50.4 °F 44.8 °F 29.8 in NW 6 mph 9 mph 81% 0 in 0 W/m2
02:21 50.4 °F 44.8 °F 29.8 in WNW 0.9 mph 7 mph 81% 0 in 0 W/m2
02:26 50.2 °F 45.1 °F 29.8 in WNW 6.9 mph 9 mph 83% 0 in 0 W/m2
02:31 50 °F 45 °F 29.8 in WNW 2.9 mph 6 mph 83% 0 in 0 W/m2
02:36 50 °F 45 °F 29.8 in West 2.9 mph 7 mph 83% 0 in 0 W/m2
02:41 50.2 °F 45 °F 29.8 in WNW 2 mph 8 mph 82% 0 in 0 W/m2
02:46 50.2 °F 45 °F 29.8 in WSW 2 mph 7 mph 82% 0 in 0 W/m2
02:51 50.2 °F 45.1 °F 29.9 in SW 2.9 mph 7 mph 83% 0 in 0 W/m2
02:56 50.2 °F 45.1 °F 29.9 in SW 2 mph 8 mph 83% 0 in 0 W/m2
03:01 50.2 °F 45 °F 29.9 in NNW 8.1 mph 8 mph 82% 0 in 0 W/m2
03:06 50.4 °F 45.1 °F 29.9 in NNW 2 mph 12 mph 82% 0 in 0 W/m2
03:11 50.5 °F 45.3 °F 29.9 in Calm   7 mph 82% 0 in 0 W/m2
03:16 50.5 °F 45.3 °F 29.9 in WNW 6.9 mph 12 mph 82% 0 in 0 W/m2
03:21 50.5 °F 45.3 °F 29.9 in SSW 8.9 mph 9 mph 82% 0 in 0 W/m2
03:26 50.5 °F 45 °F 29.9 in NNW 4.9 mph 11 mph 81% 0 in 0 W/m2
03:31 50.5 °F 45 °F 29.9 in North 2.9 mph 9 mph 81% 0 in 0 W/m2
03:36 50.5 °F 45 °F 29.9 in NW 6.9 mph 9 mph 81% 0 in 0 W/m2
03:41 50.5 °F 45 °F 29.9 in SW 2.9 mph 7 mph 81% 0 in 0 W/m2
03:46 50.5 °F 45.3 °F 29.9 in SSW 6.9 mph 12 mph 82% 0 in 0 W/m2
03:51 50.5 °F 45.3 °F 29.9 in NW 2 mph 12 mph 82% 0 in 0 W/m2
03:56 50.4 °F 45.1 °F 29.9 in North 4 mph 8 mph 82% 0 in 0 W/m2
04:01 50.4 °F 45.1 °F 29.9 in NW 2.9 mph 12 mph 82% 0 in 0 W/m2
04:06 50.4 °F 45.1 °F 29.9 in West 6 mph 8 mph 82% 0 in 0 W/m2
04:11 50.4 °F 45.3 °F 29.9 in West 2.9 mph 8 mph 83% 0 in 0 W/m2
04:16 50.2 °F 45.1 °F 29.9 in SW 2.9 mph 9 mph 83% 0 in 0 W/m2
04:21 50.2 °F 45.1 °F 29.9 in North 2.9 mph 4 mph 83% 0 in 0 W/m2
04:26 50.2 °F 45.5 °F 29.9 in West 2 mph 8 mph 84% 0 in 0 W/m2
04:31 49.8 °F 45.5 °F 29.9 in SE 0.9 mph 9 mph 85% 0 in 0 W/m2
04:36 49.6 °F 45.3 °F 29.9 in WNW 0.9 mph 9 mph 85% 0 in 0 W/m2
04:41 49.6 °F 45.7 °F 29.9 in SSW 2.9 mph 11 mph 86% 0 in 0 W/m2
04:46 49.6 °F 45.7 °F 29.9 in ENE 0.9 mph 9 mph 86% 0 in 0 W/m2
04:51 49.6 °F 45.7 °F 29.9 in SW 2.9 mph 11 mph 86% 0 in 0 W/m2
04:56 49.6 °F 45.7 °F 29.9 in NW 4.9 mph 11 mph 86% 0 in 0 W/m2
05:01 49.6 °F 45.7 °F 29.9 in WNW 6.9 mph 8 mph 86% 0 in 0 W/m2
05:06 49.6 °F 45.7 °F 29.9 in NE 2.9 mph 7 mph 86% 0 in 0 W/m2
05:11 49.6 °F 45.7 °F 29.9 in NNE 0.9 mph 5 mph 86% 0 in 0 W/m2
05:16 49.5 °F 45.7 °F 29.9 in SSW 2 mph 6 mph 87% 0 in 0 W/m2
05:21 49.5 °F 45.7 °F 29.9 in North 4 mph 10 mph 87% 0 in 0 W/m2
05:26 49.3 °F 45.5 °F 29.9 in NW 2.9 mph 7 mph 87% 0 in 0 W/m2
05:31 49.5 °F 45.7 °F 29.9 in West 6.9 mph 10 mph 87% 0 in 0 W/m2
05:36 49.5 °F 45.7 °F 29.9 in NW 4 mph 6 mph 87% 0 in 0 W/m2
05:41 49.5 °F 45.7 °F 29.9 in North 2 mph 9 mph 87% 0 in 0 W/m2
05:46 49.5 °F 45.5 °F 29.9 in NW 8.1 mph 9 mph 86% 0 in 0 W/m2
05:51 49.5 °F 45.5 °F 29.9 in SW 2 mph 2 mph 86% 0 in 0 W/m2
05:56 49.6 °F 45.7 °F 29.9 in NW 6.9 mph 11 mph 86% 0 in 0 W/m2
06:01 49.6 °F 45.7 °F 29.9 in NNW 4 mph 9 mph 86% 0 in 0 W/m2
06:06 49.8 °F 45.5 °F 29.9 in WNW 2.9 mph 8 mph 85% 0 in 0 W/m2
06:11 49.8 °F 45.5 °F 29.9 in SSE 4.9 mph 5 mph 85% 0 in 0 W/m2
06:16 50 °F 45.7 °F 29.9 in NE 0.9 mph 4 mph 85% 0 in 0 W/m2
06:21 50 °F 45.7 °F 29.9 in WNW 2 mph 9 mph 85% 0 in 0 W/m2
06:26 50 °F 46 °F 29.9 in NW 4.9 mph 5 mph 86% 0 in 0 W/m2
06:31 50 °F 46 °F 29.9 in NNE 2.9 mph 7 mph 86% 0 in 0 W/m2
06:36 49.8 °F 45.9 °F 29.9 in WNW 2 mph 7 mph 86% 0 in 0 W/m2
06:41 49.8 °F 45.9 °F 29.9 in SSW 0.9 mph 16 mph 86% 0 in 0 W/m2
06:46 50 °F 46 °F 29.9 in West 2.9 mph 11 mph 86% 0 in 0 W/m2
06:51 50 °F 46 °F 29.9 in West 4 mph 16 mph 86% 0 in 0 W/m2
06:56 50 °F 46 °F 29.9 in WSW 8.1 mph 9 mph 86% 0 in 0 W/m2
07:01 50 °F 46 °F 29.9 in NW 2 mph 6 mph 86% 0 in 0 W/m2
07:06 50 °F 46 °F 29.9 in West 0.9 mph 3 mph 86% 0 in 0 W/m2
07:11 50 °F 46 °F 29.9 in West 4 mph 8 mph 86% 0 in 0 W/m2
07:16 50 °F 46 °F 29.9 in NW 0.9 mph 6 mph 86% 0 in 0 W/m2
07:21 50 °F 46 °F 29.9 in NW 6 mph 12 mph 86% 0 in 0 W/m2
07:26 50 °F 46 °F 29.9 in West 4 mph 9 mph 86% 0 in 0 W/m2
07:31 50 °F 46 °F 29.9 in Calm   12 mph 86% 0 in 0 W/m2
07:36 50 °F 46 °F 29.9 in Calm   9 mph 86% 0 in 0 W/m2
07:41 50 °F 46 °F 30 in WNW 2 mph 4 mph 86% 0 in 0 W/m2
07:46 50 °F 46 °F 29.9 in NW 2.9 mph 9 mph 86% 0 in 0 W/m2
07:51 50.2 °F 46.2 °F 30 in West 4 mph 7 mph 86% 0 in 0 W/m2
07:56 50.2 °F 46.4 °F 30 in NNW 2.9 mph 4 mph 87% 0 in 0 W/m2
08:01 50.2 °F 46.4 °F 30 in West 4 mph 8 mph 87% 0 in 7 W/m2
08:06 49.8 °F 46.4 °F 30 in NNW 2 mph 4 mph 88% 0 in 7 W/m2
08:11 49.6 °F 46.2 °F 30 in SE 2 mph 4 mph 88% 0 in 5 W/m2
08:16 49.6 °F 46.6 °F 30 in WNW 2 mph 4 mph 89% 0 in 5 W/m2
08:21 49.6 °F 46.6 °F 30 in NNE 2 mph 4 mph 89% 0 in 19 W/m2
08:26 49.6 °F 46.8 °F 30 in WNW 2 mph 5 mph 90% 0 in 18 W/m2
08:31 49.5 °F 46.6 °F 30 in WNW 2 mph 6 mph 90% 0 in 11 W/m2
08:36 49.5 °F 46.6 °F 30 in WNW 6.9 mph 7 mph 90% 0 in 9 W/m2
08:41 49.6 °F 46.8 °F 30 in South 2 mph 7 mph 90% 0 in 12 W/m2
08:46 49.6 °F 46.8 °F 30 in WNW 2 mph 4 mph 90% 0 in 11 W/m2
08:51 49.6 °F 46.8 °F 30 in SE 4.9 mph 5 mph 90% 0 in 12 W/m2
08:56 49.6 °F 46.8 °F 30 in NW 2 mph 9 mph 90% 0 in 14 W/m2
09:01 49.6 °F 46.8 °F 30 in WNW 0.9 mph 3 mph 90% 0 in 21 W/m2
09:06 49.6 °F 46.8 °F 30 in SE 4 mph 4 mph 90% 0 in 28 W/m2
09:11 49.6 °F 46.8 °F 30 in West 2.9 mph 4 mph 90% 0 in 25 W/m2
09:16 49.6 °F 47.1 °F 30 in NNW 2 mph 4 mph 91% 0 in 39 W/m2
09:21 49.6 °F 47.1 °F 30 in WSW 2.9 mph 5 mph 91% 0 in 21 W/m2
09:26 49.6 °F 46.8 °F 30 in West 2 mph 8 mph 90% 0 in 23 W/m2
09:31 49.6 °F 47.1 °F 30 in WNW 4.9 mph 8 mph 91% 0 in 21 W/m2
09:36 49.6 °F 47.1 °F 30 in WSW 0.9 mph 7 mph 91% 0 in 23 W/m2
09:41 49.6 °F 47.1 °F 30 in Calm   2 mph 91% 0 in 28 W/m2
09:46 49.6 °F 47.1 °F 30 in West 0.9 mph 5 mph 91% 0 in 21 W/m2
09:51 49.6 °F 47.1 °F 30 in ENE 0.9 mph 2 mph 91% 0 in 30 W/m2
09:56 49.6 °F 47.1 °F 30 in NW 4 mph 5 mph 91% 0 in 39 W/m2
10:01 49.6 °F 47.1 °F 30 in SW 2 mph 10 mph 91% 0 in 30 W/m2
10:07 49.8 °F 47.3 °F 30 in NW 0.9 mph 5 mph 91% 0 in 44 W/m2
10:12 49.8 °F 47.3 °F 30 in NNE 0.9 mph 4 mph 91% 0 in 37 W/m2
10:17 49.8 °F 47.3 °F 30 in NNE 0.9 mph 3 mph 91% 0.01 in 51 W/m2
10:22 50 °F 47.5 °F 30 in SSW 2.9 mph 4 mph 91% 0.01 in 72 W/m2
10:27 50.2 °F 47.7 °F 30 in NW 2 mph 8 mph 91% 0.01 in 49 W/m2
10:32 50.2 °F 47.3 °F 30 in WNW 0.9 mph 4 mph 90% 0.01 in 46 W/m2
10:37 50.2 °F 47.3 °F 30 in North 2.9 mph 3 mph 90% 0.01 in 49 W/m2
10:42 50.4 °F 47.5 °F 30 in WSW 2 mph 4 mph 90% 0.01 in 63 W/m2
10:47 50.4 °F 47.5 °F 30 in West 2.9 mph 11 mph 90% 0.01 in 76 W/m2
10:52 50.2 °F 47.7 °F 30 in South 6 mph 6 mph 91% 0.01 in 53 W/m2
10:57 50.2 °F 47.7 °F 30 in NNW 2 mph 11 mph 91% 0.01 in 81 W/m2
11:02 50.2 °F 47.7 °F 30 in West 2 mph 13 mph 91% 0.01 in 72 W/m2
11:07 50.2 °F 48 °F 30 in West 2 mph 4 mph 92% 0.01 in 76 W/m2
11:12 50.2 °F 48 °F 30 in NW 0.9 mph 4 mph 92% 0.01 in 72 W/m2
11:17 50.2 °F 48 °F 30 in NNW 2.9 mph 4 mph 92% 0 in 70 W/m2
11:22 50.4 °F 48.2 °F 30 in NW 0.9 mph 6 mph 92% 0 in 74 W/m2
11:27 50.4 °F 48.2 °F 30 in South 2 mph 4 mph 92% 0 in 102 W/m2
11:32 50.5 °F 48 °F 30 in West 2.9 mph 8 mph 91% 0 in 86 W/m2
11:37 50.5 °F 48 °F 30 in WSW 4 mph 5 mph 91% 0 in 100 W/m2
11:42 50.7 °F 48.2 °F 30 in WNW 0.9 mph 5 mph 91% 0 in 121 W/m2
11:47 50.9 °F 48 °F 30 in Calm   10 mph 90% 0 in 156 W/m2
11:52 51.1 °F 48 °F 30 in WNW 4.9 mph 11 mph 89% 0 in 179 W/m2
11:57 51.3 °F 48.2 °F 30 in WNW 6.9 mph 10 mph 89% 0 in 148 W/m2
12:02 51.4 °F 48 °F 30 in WSW 4 mph 7 mph 88% 0 in 137 W/m2
12:07 51.4 °F 48 °F 30 in WSW 2.9 mph 7 mph 88% 0 in 116 W/m2
12:12 51.6 °F 48.2 °F 30.1 in WNW 6.9 mph 7 mph 88% 0 in 151 W/m2
12:17 51.6 °F 48.2 °F 30.1 in NW 4 mph 10 mph 88% 0 in 148 W/m2
12:22 51.6 °F 47.8 °F 30.1 in WSW 4 mph 11 mph 87% 0 in 105 W/m2
12:27 51.8 °F 48 °F 30.1 in North 2.9 mph 5 mph 87% 0 in 116 W/m2
12:32 51.8 °F 48 °F 30.1 in NNW 2 mph 11 mph 87% 0 in 137 W/m2
12:37 52 °F 48.2 °F 30.1 in West 6 mph 6 mph 87% 0 in 118 W/m2
12:42 52.2 °F 48 °F 30.1 in WNW 0.9 mph 12 mph 86% 0 in 105 W/m2
12:47 52.2 °F 48 °F 30.1 in NW 2.9 mph 8 mph 86% 0 in 109 W/m2
12:52 52.2 °F 47.8 °F 30.1 in WSW 2 mph 12 mph 85% 0 in 93 W/m2
12:57 52.3 °F 48 °F 30.1 in WNW 2 mph 8 mph 85% 0 in 105 W/m2
13:02 52.3 °F 47.7 °F 30.1 in WSW 2 mph 10 mph 84% 0 in 90 W/m2
13:07 52.3 °F 48 °F 30.1 in SSW 8.9 mph 12 mph 85% 0 in 120 W/m2
13:12 52.3 °F 48 °F 30.1 in NNW 2.9 mph 7 mph 85% 0 in 83 W/m2
13:17 52.3 °F 48 °F 30.1 in SW 4.9 mph 12 mph 85% 0 in 58 W/m2
13:22 52.2 °F 47.8 °F 30.1 in West 2 mph 7 mph 85% 0 in 58 W/m2
13:27 52 °F 48.2 °F 30.1 in WNW 4 mph 10 mph 87% 0 in 62 W/m2
13:32 51.4 °F 48 °F 30.1 in WSW 4 mph 7 mph 88% 0 in 130 W/m2
13:37 51.4 °F 48 °F 30.1 in NW 8.1 mph 8 mph 88% 0 in 149 W/m2
13:42 51.4 °F 48 °F 30.1 in WSW 0.9 mph 5 mph 88% 0 in 120 W/m2
13:47 51.6 °F 47.8 °F 30.1 in WNW 8.9 mph 9 mph 87% 0 in 179 W/m2
13:52 52 °F 48.2 °F 30.1 in WNW 2.9 mph 6 mph 87% 0 in 69 W/m2
13:57 52 °F 47.8 °F 30.1 in West 0.9 mph 9 mph 86% 0 in 107 W/m2
14:02 52.2 °F 47.8 °F 30.1 in WNW 2 mph 10 mph 85% 0 in 111 W/m2
14:07 52.2 °F 47.8 °F 30.1 in West 4 mph 8 mph 85% 0 in 60 W/m2
14:12 52.2 °F 47.8 °F 30.1 in WNW 2 mph 4 mph 85% 0 in 69 W/m2
14:17 52.2 °F 47.8 °F 30.1 in WSW 4 mph 8 mph 85% 0 in 84 W/m2
14:22 52.2 °F 47.8 °F 30.1 in West 10.1 mph 10 mph 85% 0 in 60 W/m2
14:27 52.2 °F 47.5 °F 30.1 in West 6 mph 11 mph 84% 0 in 70 W/m2
14:32 52.2 °F 47.8 °F 30.1 in SW 4.9 mph 9 mph 85% 0 in 77 W/m2
14:37 52.2 °F 47.8 °F 30.1 in West 6.9 mph 10 mph 85% 0 in 105 W/m2
14:42 52.2 °F 47.8 °F 30.1 in NW 2.9 mph 7 mph 85% 0 in 100 W/m2
14:47 52.2 °F 47.8 °F 30.1 in NE 0.9 mph 10 mph 85% 0 in 95 W/m2
14:52 52.3 °F 47.7 °F 30.1 in NW 2.9 mph 11 mph 84% 0 in 83 W/m2
14:57 52.3 °F 47.7 °F 30.1 in NW 4.9 mph 9 mph 84% 0 in 109 W/m2
15:02 52.2 °F 47.5 °F 30.1 in SW 10.1 mph 13 mph 84% 0 in 54 W/m2
15:07 52.2 °F 47.5 °F 30.1 in WNW 2.9 mph 7 mph 84% 0 in 33 W/m2
15:13 52 °F 47.7 °F 30.1 in NW 2 mph 11 mph 85% 0 in 37 W/m2
15:18 52 °F 47.7 °F 30.1 in WNW 2.9 mph 4 mph 85% 0 in 53 W/m2
15:23 52 °F 47.7 °F 30.1 in West 2 mph 8 mph 85% 0 in 51 W/m2
15:28 52 °F 47.7 °F 30.1 in NW 4 mph 7 mph 85% 0 in 65 W/m2
15:33 51.8 °F 47.5 °F 30.1 in WNW 0.9 mph 10 mph 85% 0 in 54 W/m2
15:38 51.8 °F 47.5 °F 30.1 in NNW 2.9 mph 9 mph 85% 0 in 42 W/m2
15:43 51.6 °F 47.5 °F 30.1 in Calm   9 mph 86% 0 in 32 W/m2
15:48 51.6 °F 47.5 °F 30.1 in West 6.9 mph 7 mph 86% 0 in 30 W/m2
15:53 51.4 °F 47.7 °F 30.1 in West 2 mph 13 mph 87% 0 in 23 W/m2
15:58 51.3 °F 47.5 °F 30.1 in West 4 mph 10 mph 87% 0 in 25 W/m2
16:03 51.3 °F 47.5 °F 30.1 in WNW 0.9 mph 13 mph 87% 0 in 32 W/m2
16:08 51.3 °F 47.5 °F 30.1 in WSW 4.9 mph 7 mph 87% 0 in 25 W/m2
16:13 51.1 °F 47.3 °F 30.1 in Calm   4 mph 87% 0 in 18 W/m2
16:18 51.1 °F 47.7 °F 30.1 in NW 0.9 mph 3 mph 88% 0 in 12 W/m2
16:23 50.9 °F 47.1 °F 30.1 in NW 2 mph 8 mph 87% 0 in 12 W/m2
16:28 50.9 °F 47.1 °F 30.1 in WNW 2 mph 6 mph 87% 0 in 11 W/m2
16:33 50.9 °F 47.1 °F 30.1 in NW 2 mph 8 mph 87% 0 in 9 W/m2
16:38 50.7 °F 46.9 °F 30.1 in WNW 0.9 mph 9 mph 87% 0 in 9 W/m2
16:43 50.7 °F 46.9 °F 30.1 in NNW 4 mph 5 mph 87% 0 in 7 W/m2
16:48 50.7 °F 46.9 °F 30.1 in West 4 mph 5 mph 87% 0 in 0 W/m2
16:53 50.7 °F 46.9 °F 30.1 in Calm   2 mph 87% 0 in 0 W/m2
16:58 50.5 °F 46.8 °F 30.1 in WNW 0.9 mph 5 mph 87% 0 in 0 W/m2
17:03 50.5 °F 46.8 °F 30.1 in WNW 2 mph 4 mph 87% 0 in 0 W/m2
17:08 50.5 °F 46.8 °F 30.1 in WNW 2 mph 6 mph 87% 0 in 0 W/m2
17:13 50.5 °F 46.8 °F 30.2 in West 2 mph 6 mph 87% 0 in 0 W/m2
17:18 50.5 °F 46.8 °F 30.2 in West 0.9 mph 4 mph 87% 0 in 0 W/m2
17:23 50.5 °F 46.8 °F 30.2 in NW 2 mph 6 mph 87% 0 in 0 W/m2
17:28 50.5 °F 46.8 °F 30.2 in WNW 4 mph 7 mph 87% 0 in 0 W/m2
17:33 50.5 °F 46.8 °F 30.2 in West 2 mph 4 mph 87% 0 in 0 W/m2
17:38 50.5 °F 46.8 °F 30.2 in WSW 0.9 mph 4 mph 87% 0 in 0 W/m2
17:43 50.5 °F 46.8 °F 30.2 in NE 2 mph 4 mph 87% 0 in 0 W/m2
17:48 50.5 °F 46.8 °F 30.2 in WNW 2.9 mph 7 mph 87% 0 in 0 W/m2
17:53 50.5 °F 47.1 °F 30.2 in WNW 4.9 mph 6 mph 88% 0 in 0 W/m2
17:58 50 °F 46.9 °F 30.2 in WNW 4 mph 11 mph 89% 0.01 in 0 W/m2
18:03 49.6 °F 46.6 °F 30.2 in WNW 6.9 mph 11 mph 89% 0.01 in 0 W/m2
18:08 49.6 °F 46.8 °F 30.2 in WNW 2.9 mph 5 mph 90% 0.01 in 0 W/m2
18:13 49.5 °F 46.6 °F 30.2 in Calm   11 mph 90% 0.01 in 0 W/m2
18:18 49.5 °F 46.9 °F 30.2 in West 4 mph 9 mph 91% 0.01 in 0 W/m2
18:23 49.3 °F 46.8 °F 30.2 in Calm   4 mph 91% 0.01 in 0 W/m2
18:28 49.3 °F 46.8 °F 30.2 in West 4 mph 9 mph 91% 0.01 in 0 W/m2
18:33 49.5 °F 46.9 °F 30.2 in SW 2.9 mph 3 mph 91% 0.01 in 0 W/m2
18:38 49.3 °F 46.8 °F 30.2 in WNW 0.9 mph 7 mph 91% 0.01 in 0 W/m2
18:43 49.5 °F 46.9 °F 30.2 in Calm   3 mph 91% 0.01 in 0 W/m2
18:48 49.5 °F 46.9 °F 30.2 in West 2 mph 3 mph 91% 0.01 in 0 W/m2
18:53 49.3 °F 46.8 °F 30.2 in Calm   2 mph 91% 0.01 in 0 W/m2
18:58 49.3 °F 47.1 °F 30.2 in West 2.9 mph 3 mph 92% 0 in 0 W/m2
19:03 49.3 °F 47.1 °F 30.2 in West 0.9 mph 2 mph 92% 0 in 0 W/m2
19:08 49.5 °F 47.3 °F 30.2 in WNW 2.9 mph 6 mph 92% 0 in 0 W/m2
19:13 49.5 °F 47.3 °F 30.2 in WNW 2 mph 3 mph 92% 0 in 0 W/m2
19:18 49.5 °F 47.3 °F 30.2 in WSW 2 mph 4 mph 92% 0 in 0 W/m2
19:23 49.5 °F 47.3 °F 30.2 in WNW 4 mph 4 mph 92% 0 in 0 W/m2
19:28 49.5 °F 47.3 °F 30.2 in WNW 2 mph 4 mph 92% 0 in 0 W/m2
Juneau County Weather
Compliments of Weather Underground - 2 mb